Regional Weather Roundup
Issued by NWS Mobile, AL

Home | Current Version | Previous Version | Text Only | Print | Product List | Glossary On
Versions: 1 2 3 4 5 6 7 8 9 10 11 12 13 14 15 16 17 18 19 20 21 22 23 24 25 26 27 28 29 30 31 32 33 34 35 36 37 38 39 40 41 42 43 44 45 46 47 48 49 50
000
ASUS44 KMOB 250410
RWRMOB
REGIONAL WEATHER ROUNDUP
NATIONAL WEATHER SERVICE MOBILE AL
1000 PM CST SAT JAN 24 2015

NOTE: "FAIR" INDICATES FEW OR NO CLOUDS BELOW 12,000 FEET WITH NO
      SIGNIFICANT WEATHER AND/OR OBSTRUCTIONS TO VISIBILITY.

  * THESE STATIONS ARE PART OF THE UNIVERSITY OF SOUTH ALABAMA
    MESONET AND ARE NOT UNDER NWS OR FAA QUALITY CONTROL.

ALZ061>064-250500-
COASTAL ALABAMA

CITY           SKY/WX    TMP DP  RH WIND       PRES   REMARKS
MOBILE REG APT CLEAR     36  34  92 W5        30.06S
BROOKLEY FIELD CLEAR     40  38  93 SW3       30.07F
USA CAMPUS*    NOT AVBL
DOG RIVER*     NOT AVBL


CITY           SKY/WX    TMP DP  RH WIND       PRES   REMARKS
MOUNT VERNON*  NOT AVBL
SARALAND*      NOT AVBL
BAY MINETTE*   NOT AVBL
LOXLEY*        NOT AVBL
ROBERTSDALE*   NOT AVBL
FAIRHOPE*        N/A     36  36 100 S2        30.05F
ELBERTA*         N/A     36  34  93 CALM      30.05S
FOLEY*         NOT AVBL
GRAND BAY*     NOT AVBL
DAUPHIN ISLND* NOT AVBL
BON SCOUR NWR* NOT AVBL
GULF SHORES    CLEAR     36  35  98 CALM      30.06F

$$

ALZ051>060-250500-
INTERIOR SOUTHWEST AND SOUTH CENTRAL ALABAMA

CITY           SKY/WX    TMP DP  RH WIND       PRES   REMARKS
GREENVILLE     CLEAR     34  29  82 CALM      30.02S
EVERGREEN      CLEAR     34  32  92 CALM      30.04F
CASTLEBERRY*   NOT AVBL
ATMORE*          N/A     37  36  93 CALM      30.06F
DIXIE*           N/A     39  34  81 SW3       30.01S
ANDALUSIA/OPP  CLEAR     39  32  76 CALM      30.03F
ANDALUSIA*       N/A     41  32  70 W3        30.02S
FLORALA APT    NOT AVBL
FLORALA*         N/A     34  34 100 CALM      30.01F

$$

FLZ001>006-250500-
WESTERN FLORIDA PANHANDLE

CITY           SKY/WX    TMP DP  RH WIND       PRES   REMARKS
PENSACOLA      CLEAR     41  32  70 W3        30.05S
NAS PENSACOLA  CLEAR     36  33  89 CALM      30.05F
MILTON         CLEAR     36  33  89 NW5       30.05F
WHTNG S FIELD  CLEAR     37  33  85 NW5       30.05F


CITY           SKY/WX    TMP DP  RH WIND       PRES   REMARKS
WALNUT HILL*   NOT AVBL
JAY*           NOT AVBL
CRESTVIEW      CLEAR     32  31  96 CALM      30.06F
VALPARAISO     CLEAR     39  32  74 NW3       30.05S
DESTIN         CLEAR     49  35  58 NW6       30.05S

$$

MSZ076-079-250500-
INTERIOR SOUTHEAST MISSISSIPPI

CITY           SKY/WX    TMP DP  RH WIND       PRES   REMARKS
LEAKESVILLE*   NOT AVBL
AGRICOLA*      NOT AVBL

$$

MARINE OBSERVATIONS

STATION/POSITION TIME  TEMP    WIND        PRES    WAVE
                       AIR SEA DIR/SP/G            HT/PER
                 (UTC) (F)     (DEG/KT/KT) (MB)    (FT/S)
PASCAGOULA       0400   50     260/  4/  5 1017.9R
PETIT BOIS ISLND 0400   55     270/ 15/ 18 1018.4R
GRAND BAY        0300   47     300/  5     1019.0S
KATRINA CUT      0300   53     270/ 12     1018.6F
CEDAR POINT      0300   52     270/ 12     1018.0F
E DAUPHIN ISLAND 0300   52     260/  6/  9 1017.9S
MIDDLE BAY LIGHT 0300   50     270/  9     1017.3R
USCG MOBILE BAY  0400   44 57  280/  3/  4 1016.7F
STATE DOCKS      0400   44 51              1017.4F
MEAHER PARK      0300   44     100/  1     1018.3F
WEEKS BAY        0300   37                   N/A
FORT MORGAN      0400   54     290/ 12/ 13 1017.5F
12 S ORANGE BCH  0400   56 65  280/ 14/ 16 1017.4F   3/ 8
PENSACOLA BAY    0400   47 57  300/  2/  3 1018.0S
64 S DAUPHIN ISL 0338   56 70  280/ 14/ 17 1019.0F   4/ 8

$$

SELECTED LOCATIONS ACROSS THE REGION

CITY           SKY/WX    TMP DP  RH WIND       PRES   REMARKS
NEW ORLEANS    PTCLDY    46  38  73 SW9       30.10R
GULFPORT       CLEAR     40  35  83 CALM      30.07R
PASCAGOULA AP  CLEAR     38  37  97 CALM      30.07S
PASCAGOULA*    NOT AVBL
HATTIESBURG    CLEAR     36  34  92 CALM      30.06S
LAUREL         CLEAR     34  30  86 CALM      30.04F
MERIDIAN       CLEAR     34  32  92 CALM      30.02F
JACKSON        CLEAR     41  32  70 S5        30.02S
MONTGOMERY     CLEAR     37  30  75 S5        30.03F
TROY           CLEAR     34  31  88 CALM      30.03F
KINSTON*       NOT AVBL
GENEVA*        NOT AVBL
ASHFORD*         N/A     41  32  70 W3        30.02S
DOTHAN         CLEAR     43  31  62 W3        30.05F
PANAMA CITY    CLEAR     40  37  89 CALM      30.04R

$$



USA.gov is the U.S. government's official web portal to all federal, state and local government web resources and services.